EW1090 Weather Reports


Display with metric or nautical units.
time (UTC)temp
F
wind
direction
speed
MPH
gust
MPH
rain 1hr
in
rain 24hr
in
rain mn
in
humidity
%
barometer
mb
20260510150351 76 28 0.0 0.0 0.02 1.66 1.41 81 1016.3
20260510145825 76 89 0.0 0.0 0.03 1.66 1.41 79 1016.4
20260510145320 76 44 0.0 4.0 0.03 1.66 1.41 82 1016.4
20260510144816 75 80 0.0 4.0 0.03 1.66 1.41 81 1016.5
20260510144332 75 17 0.0 4.0 0.02 1.65 1.40 83 1016.5
20260510143854 75 84 0.0 4.0 0.02 1.65 1.40 83 1016.4
20260510143328 74 318 0.0 5.0 0.03 1.65 1.40 84 1016.3
20260510142824 74 96 0.0 5.0 0.03 1.65 1.40 86 1016.2
20260510142341 73 57 1.0 3.0 0.02 1.64 1.39 86 1016.3
20260510141836 73 147 0.0 3.0 0.02 1.64 1.39 87 1016.2
20260510141332 73 74 0.0 3.0 0.02 1.80 1.39 89 1016.2
20260510140826 73 78 0.0 5.0 0.03 1.80 1.39 90 1016.2
20260510140322 72 58 0.0 5.0 0.03 1.80 1.39 92 1016.1
20260510135819 72 90 0.0 3.0 0.02 1.79 1.38 93 1016.0
20260510135315 72 90 0.0 2.0 0.02 1.79 1.38 93 1016.2
20260510134832 71 90 1.0 4.0 0.02 1.79 1.38 93 1016.2
20260510134327 71 63 1.0 4.0 0.02 1.79 1.38 93 1016.2
20260510133835 71 76 1.0 3.0 0.03 1.79 1.38 93 1016.1
20260510133332 71 86 1.0 7.0 0.02 1.78 1.37 93 1016.1
20260510132829 71 115 1.0 7.0 0.02 1.78 1.37 93 1016.1
20260510132323 70 108 0.0 2.0 0.02 1.78 1.37 93 1016.0
20260510131819 70 62 0.0 2.0 0.02 1.78 1.37 94 1015.8
20260510131315 70 107 0.0 3.0 0.03 1.79 1.37 94 1015.8
20260510130831 70 107 0.0 3.0 0.02 1.78 1.36 94 1015.8
20260510130326 70 98 0.0 3.0 0.02 1.78 1.36 94 1015.5
20260510125833 70 101 0.0 0.0 0.02 1.78 1.36 94 1015.5
20260510125349 70 86 0.0 0.0 0.02 1.78 1.36 94 1015.4
20260510124823 69 86 0.0 0.0 0.03 1.78 1.36 94 1015.4
20260510124320 69 71 0.0 0.0 0.02 1.77 1.35 93 1015.3
20260510123835 69 71 0.0 0.0 0.02 1.77 1.35 94 1015.1
20260510123329 69 71 327.0 327.0 0.02 0.19 1.35 93 1015.1
20260510122824 69 71 0.0 0.0 0.02 1.77 1.35 93 1015.0
20260510122340 69 71 0.0 0.0 0.03 1.77 1.35 94 1014.9
20260510121817 69 71 0.0 0.0 0.03 1.77 1.35 93 1014.9
20260510121333 69 71 0.0 0.0 0.02 1.76 1.34 93 1014.9
20260510120830 69 71 0.0 0.0 0.02 1.76 1.34 93 1014.8
20260510120326 68 71 0.0 0.0 0.02 1.76 1.34 93 1014.8
20260510115822 68 71 0.0 0.0 0.03 1.76 1.34 93 1014.7
20260510115317 68 71 0.0 0.0 0.03 1.76 1.34 93 1014.6
20260510114814 68 71 0.0 0.0 0.02 1.75 1.33 93 1014.5
20260510114329 68 71 0.0 0.0 0.02 1.75 1.33 93 1014.4
20260510113826 68 71 0.0 0.0 0.02 1.75 1.33 93 1014.4
20260510113321 68 71 0.0 0.0 0.03 1.75 1.33 93 1014.1
20260510112323 68 74 0.0 3.0 0.02 1.74 1.32 93 1014.0
20260510111818 68 71 0.0 3.0 0.02 1.74 1.32 93 1014.0
20260510111314 68 100 0.0 4.0 0.03 1.74 1.32 93 1014.0
20260510110830 68 100 1.0 4.0 0.03 1.74 1.32 93 1014.0
20260510110327 68 74 0.0 3.0 0.03 1.74 1.32 92 1013.8
20260510105823 68 94 0.0 2.0 0.02 1.73 1.31 92 1013.7
20260510105320 68 94 0.0 2.0 0.03 1.73 1.31 93 1013.6
20260510104836 68 105 0.0 1.0 0.03 1.73 1.31 93 1013.4
20260510104332 68 104 0.0 3.0 0.03 1.73 1.31 93 1013.4
20260510103828 68 74 0.0 2.0 0.02 1.72 1.30 93 1013.2
20260510103324 68 74 0.0 0.0 0.02 1.72 1.30 93 1013.1
20260510102821 68 74 0.0 0.0 0.03 1.72 1.30 93 1013.1
20260510102317 68 74 0.0 0.0 0.03 1.72 1.30 93 1013.0
20260510101833 68 74 0.0 0.0 0.03 1.72 1.30 93 1012.9
20260510101329 68 74 0.0 0.0 0.02 1.71 1.29 93 1012.8
20260510100817 68 74 0.0 0.0 0.03 1.71 1.29 93 1012.8
20260510100333 68 74 0.0 0.0 0.03 1.71 1.29 93 1012.7
20260510095830 68 74 0.0 0.0 0.03 1.71 1.29 93 1012.7
20260510095346 68 74 0.0 1.0 0.02 1.70 1.28 93 1012.7
20260510094821 68 74 0.0 1.0 0.03 1.70 1.28 93 1012.7
20260510094333 68 72 0.0 0.0 0.03 1.70 1.28 93 1012.7
20260510093849 68 72 0.0 0.0 0.03 1.70 1.28 93 1012.7
20260510093345 68 72 0.0 0.0 0.03 1.70 1.28 93 1012.7
20260510092841 68 72 0.0 0.0 0.03 1.69 1.27 93 1012.7
20260510092316 68 72 0.0 0.0 0.03 1.69 1.27 93 1012.6
20260510091831 68 72 0.0 1.0 0.03 1.69 1.27 93 1012.5
20260510091326 68 72 0.0 1.0 0.03 1.69 1.27 93 1012.5
20260510090825 68 68 0.0 0.0 0.03 1.68 1.26 93 1012.4
20260510090322 68 31 0.0 0.0 0.03 1.68 1.26 93 1012.4
20260510085818 68 31 0.0 0.0 0.03 1.68 1.26 93 1012.4
20260510085314 68 31 0.0 0.0 0.03 1.68 1.26 93 1012.5
20260510084829 68 31 0.0 0.0 0.03 1.67 1.25 93 1012.6
20260510084325 68 31 0.0 0.0 0.03 1.67 1.25 93 1012.5
20260510083843 68 355 0.0 0.0 0.03 1.67 1.25 93 1012.5
20260510083318 68 355 0.0 0.0 0.03 1.67 1.25 93 1012.5
20260510082814 69 355 0.0 3.0 0.03 1.66 1.24 94 1012.6
20260510082331 69 355 0.0 3.0 0.03 1.66 1.24 94 1012.6
20260510081828 68 26 0.0 3.0 0.03 1.66 1.24 94 1012.5
20260510081325 68 345 0.0 3.0 0.04 1.66 1.24 94 1012.4
20260510080836 67 29 0.0 0.0 0.03 1.65 1.23 93 1012.2
20260510080331 67 106 0.0 0.0 0.03 1.65 1.23 93 1012.2
20260510075847 66 106 0.0 0.0 0.03 1.65 1.23 92 1012.2
20260510075322 66 106 0.0 0.0 0.04 1.65 1.23 92 1012.2
20260510074839 66 106 0.0 0.0 0.03 1.64 1.22 92 1012.2
20260510074316 66 106 0.0 0.0 0.03 1.64 1.22 92 1012.2
20260510073833 66 106 0.0 0.0 0.04 1.64 1.22 92 1012.2
20260510073329 66 106 0.0 0.0 0.04 1.64 1.22 92 1012.1
20260510072841 66 106 0.0 0.0 0.03 1.63 1.21 92 1012.0
20260510072315 66 106 0.0 0.0 0.03 1.63 1.21 92 1011.9
20260510071831 66 106 0.0 0.0 0.04 1.63 1.21 92 1011.9
20260510071348 66 106 0.0 0.0 0.03 1.62 1.20 92 1011.9
20260510070823 66 106 0.0 0.0 0.03 1.62 1.20 92 1011.9
20260510070320 66 106 0.0 0.0 0.04 1.62 1.20 92 1012.0
20260510065817 67 106 0.0 0.0 0.04 1.62 1.20 92 1012.1
20260510065314 67 106 0.0 0.0 0.03 1.61 1.19 92 1012.2
20260510064831 67 106 0.0 0.0 0.04 1.61 1.19 92 1012.3
20260510064328 67 106 0.0 0.0 0.04 1.61 1.19 92 1012.2
20260510063824 67 106 0.0 0.0 0.03 1.60 1.18 92 1012.1
20260510063321 67 106 0.0 0.0 0.04 1.60 1.18 92 1012.0
20260510062818 67 106 0.0 0.0 0.04 1.60 1.18 92 1012.0
20260510062315 67 106 0.0 0.0 0.04 1.60 1.18 92 1012.0
20260510061831 67 106 0.0 0.0 0.04 1.59 1.17 92 1012.0
20260510061328 67 106 0.0 0.0 0.04 1.59 1.17 92 1012.2
20260510060823 67 106 0.0 0.0 0.04 1.59 1.17 92 1012.2
20260510060320 67 106 0.0 0.0 0.04 1.58 1.16 92 1012.2
20260510055756 67 106 0.0 0.0 0.04 1.58 1.16 91 1012.2
20260510055313 67 106 0.0 0.0 0.04 1.58 1.16 91 1012.2
20260510054831 67 106 0.0 0.0 0.04 1.57 1.15 92 1012.3
20260510054327 68 106 0.0 0.0 0.04 1.57 1.15 92 1012.1
20260510053801 67 106 0.0 0.0 0.05 1.57 1.15 91 1012.0
20260510053257 68 106 0.0 0.0 0.04 1.56 1.14 91 1011.9
20260510052813 68 106 0.0 0.0 0.04 1.56 1.14 91 1012.0
20260510052310 68 106 0.0 0.0 0.05 1.56 1.14 91 1012.0
20260510051807 68 106 0.0 0.0 0.04 1.55 1.13 91 1012.0
20260510051303 68 106 0.0 0.0 0.04 1.55 1.13 92 1012.0
20260510050758 68 106 0.0 0.0 0.05 1.55 1.13 92 1012.0
20260510050313 68 106 0.0 0.0 0.04 1.54 1.12 91 1012.1
20260510045803 68 106 0.0 0.0 0.05 1.54 1.12 91 1012.2
20260510045300 68 106 0.0 0.0 0.05 1.54 1.12 92 1012.1
20260510044756 68 106 0.0 0.0 0.04 1.53 1.11 91 1012.1
20260510044312 68 106 0.0 0.0 0.05 1.53 1.11 91 1012.1
20260510043828 68 106 0.0 0.0 0.04 1.52 1.10 91 1012.2
20260510043304 68 106 0.0 0.0 0.05 1.52 1.10 91 1012.3
20260510042821 68 106 0.0 0.0 0.05 1.52 1.10 91 1012.4
20260510042336 68 106 0.0 0.0 0.05 1.51 1.09 91 1012.5
20260510041812 68 92 0.0 1.0 0.05 1.51 1.09 91 1012.4
20260510041308 68 92 0.0 5.0 0.05 1.51 1.09 91 1012.3
20260510040304 68 84 0.0 5.0 0.05 1.50 1.08 91 1012.3
20260510035802 68 132 1.0 5.0 0.05 1.49 1.07 91 1012.2
20260510035313 68 244 0.0 0.0 0.05 1.49 1.07 91 1012.4
20260510034828 68 169 0.0 0.0 0.06 1.49 1.07 91 1012.5
20260510034304 68 195 0.0 3.0 0.05 1.48 1.06 91 1012.6
20260510033758 68 207 1.0 3.0 0.05 1.48 1.06 91 1012.7
20260510033315 68 215 0.0 2.0 0.05 1.47 1.05 91 1012.8
20260510032812 68 126 0.0 0.0 0.05 1.47 1.05 91 1012.9
20260510032308 68 126 0.0 0.0 0.05 1.46 1.04 91 1012.8
20260510031804 68 126 0.0 0.0 0.05 1.46 1.04 91 1012.8
20260510031300 68 126 0.0 0.0 0.06 1.46 1.04 91 1012.9
20260510030757 68 126 0.0 0.0 0.05 1.45 1.03 91 1012.9
20260510030312 68 126 0.0 0.0 0.06 1.45 1.03 91 1012.9
20260510025809 68 126 0.0 0.0 0.05 1.44 1.02 91 1013.0
20260510025306 68 126 0.0 0.0 0.06 1.44 1.02 91 1013.0
20260510024801 68 126 0.0 0.0 0.05 1.43 1.01 91 1013.1
20260510024257 68 126 0.0 0.0 0.06 1.43 1.01 91 1013.0
20260510023814 68 126 0.0 0.0 0.06 1.43 1.01 91 1012.9
20260510023312 68 126 0.0 1.0 0.06 1.42 1.00 91 1012.7
20260510022807 68 126 0.0 2.0 0.06 1.42 1.00 91 1012.6
20260510022306 68 121 0.0 2.0 0.06 1.41 0.99 91 1012.6
20260510021819 68 218 0.0 2.0 0.06 1.41 0.99 91 1012.4
20260510021336 68 222 0.0 0.0 0.06 1.40 0.98 90 1012.3
20260510020311 68 211 0.0 2.0 0.06 1.39 0.97 91 1012.3
20260510015808 69 217 0.0 2.0 0.07 1.39 0.97 91 1012.3
20260510015306 69 217 0.0 2.0 0.06 1.38 0.96 91 1012.4
20260510014801 69 217 0.0 2.0 0.07 1.38 0.96 91 1012.2
20260510014257 69 217 0.0 4.0 0.06 1.37 0.95 91 1012.2
20260510013814 69 82 0.0 8.0 0.07 1.37 0.95 91 1012.1
20260510013310 69 118 2.0 8.0 0.06 1.36 0.94 91 1012.0
20260510012826 69 156 0.0 2.0 0.07 1.36 0.94 91 1011.9
20260510012301 69 134 0.0 0.0 0.07 1.35 0.93 91 1012.0
20260510011758 69 132 0.0 4.0 0.07 1.35 0.93 91 1012.0
20260510011315 69 132 1.0 4.0 0.07 1.34 0.92 91 1011.8
20260510010812 69 104 0.0 4.0 0.07 1.34 0.92 91 1011.8
20260510010309 69 154 1.0 4.0 0.07 1.33 0.91 91 1011.9
20260510005805 69 132 0.0 2.0 0.07 1.32 0.90 91 1011.9
20260510005300 69 102 0.0 5.0 0.07 1.32 0.90 91 1012.0
20260510004816 69 99 1.0 5.0 0.07 1.31 0.89 91 1011.9
20260510004313 69 113 0.0 6.0 0.08 1.31 0.89 91 1011.9
20260510003809 69 86 2.0 6.0 0.07 1.30 0.88 91 1011.9
20260510003305 69 152 0.0 0.0 0.08 1.30 0.88 91 1011.9
20260510002802 69 137 0.0 0.0 0.08 1.29 0.87 91 1011.9
20260510002319 69 137 0.0 0.0 0.07 1.28 0.86 91 1011.9
20260510001836 69 164 0.0 0.0 0.08 1.28 0.86 91 1012.0
20260510001312 69 164 0.0 0.0 0.08 1.36 0.85 91 1011.9
20260510000807 69 155 0.0 0.0 0.08 1.35 0.84 90 1011.9
20260510000320 69 155 0.0 0.0 0.08 1.35 0.84 91 1011.8
20260509235814 69 155 0.0 0.0 0.08 1.34 0.83 91 1011.8
20260509235310 69 118 0.0 0.0 0.09 1.34 0.83 91 1011.9
20260509234808 69 172 0.0 0.0 0.08 1.33 0.82 90 1011.8
20260509234325 69 160 0.0 0.0 0.08 1.32 0.81 91 1011.7
20260509233800 69 121 0.0 0.0 0.09 1.32 0.81 91 1011.8
20260509233317 70 167 0.0 0.0 0.09 1.31 0.80 91 1011.8
20260509232833 70 132 0.0 0.0 0.08 1.30 0.79 91 1011.8
20260509232327 70 132 0.0 0.0 0.09 1.30 0.79 91 1012.2
20260509231824 70 132 0.0 0.0 0.09 1.29 0.78 91 1012.2
20260509231258 70 132 0.0 0.0 0.09 1.42 0.77 91 1012.1
20260509230815 70 132 0.0 0.0 0.09 1.41 0.76 91 1012.1
20260509230313 70 119 0.0 0.0 0.09 1.41 0.76 91 1012.0
20260509225809 70 229 0.0 0.0 0.09 1.40 0.75 91 1012.2
20260509225306 70 236 0.0 0.0 0.09 1.39 0.74 91 1012.0
20260509224801 70 147 0.0 0.0 0.10 1.39 0.74 91 1011.8
20260509224258 70 207 0.0 0.0 0.10 1.38 0.73 91 1011.8
20260509223814 70 193 0.0 0.0 0.10 1.37 0.72 90 1011.8
20260509223311 70 195 0.0 0.0 0.09 1.36 0.71 91 1011.7
20260509222807 70 202 0.0 0.0 0.10 1.36 0.71 91 1011.4
20260509222306 70 185 0.0 0.0 0.10 1.35 0.70 91 1011.1
20260509221820 70 180 0.0 0.0 0.10 1.34 0.69 90 1011.0
20260509221336 70 180 0.0 0.0 0.10 1.52 0.68 91 1011.0
20260509220832 70 180 0.0 0.0 0.10 1.51 0.67 91 1011.0
20260509220306 69 180 0.0 0.0 0.11 1.51 0.67 91 1011.1
20260509215803 69 180 0.0 0.0 0.11 1.50 0.66 91 1011.3
20260509215320 69 180 0.0 0.0 0.10 1.49 0.65 91 1011.4
20260509214833 69 159 0.0 0.0 0.11 1.48 0.64 91 1011.6
20260509214309 69 186 0.0 0.0 0.10 1.47 0.63 91 1011.7
20260509213804 69 330 0.0 0.0 0.10 1.46 0.62 91 1011.6
20260509213300 69 180 0.0 0.0 0.11 1.46 0.62 91 1011.4
20260509212816 69 179 0.0 0.0 0.11 1.45 0.61 91 1011.1
20260509212312 69 162 0.0 0.0 0.11 1.44 0.60 91 1010.9
20260509211807 69 167 0.0 0.0 0.11 1.43 0.59 91 1011.0
20260509211303 69 136 0.0 0.0 0.11 1.61 0.58 91 1010.9
20260509210801 69 173 0.0 0.0 0.10 1.60 0.57 92 1010.8
20260509210319 69 117 0.0 0.0 0.10 1.59 0.56 92 1010.8
20260509205834 69 128 0.0 5.0 0.10 1.58 0.55 92 1010.8
20260509204833 69 118 1.0 4.0 0.10 1.56 0.53 92 1010.7
20260509203810 69 162 0.0 3.0 0.11 1.55 0.52 92 1010.8
20260509203259 69 153 1.0 3.0 0.11 1.54 0.51 92 1011.0
20260509202813 69 161 0.0 0.0 0.11 1.53 0.50 92 1011.3
20260509202309 69 156 0.0 0.0 0.11 1.52 0.49 92 1011.3
20260509201805 68 203 0.0 0.0 0.11 1.51 0.48 92 1011.6
20260509201301 68 203 0.0 1.0 0.11 1.50 0.47 92 1011.9
20260509200816 68 203 0.0 1.0 0.12 1.50 0.47 92 1012.1
20260509200311 68 203 0.0 3.0 0.12 1.49 0.46 92 1012.2
20260509195808 68 192 0.0 2.0 0.12 1.48 0.45 92 1012.0
20260509195306 68 146 0.0 1.0 0.12 1.47 0.44 92 1012.1
20260509194800 68 146 0.0 1.0 0.12 1.46 0.43 92 1012.1
20260509193815 68 146 1.0 3.0 0.11 1.44 0.41 92 1012.1
20260509193311 68 146 0.0 2.0 0.11 1.43 0.40 92 1012.1
20260509192808 68 145 0.0 2.0 0.11 1.42 0.39 93 1012.2
20260509192325 68 125 0.0 0.0 0.11 1.41 0.38 92 1012.5
20260509191305 68 125 0.0 1.0 0.11 1.39 0.36 92 1012.9
20260509190820 68 125 0.0 1.0 0.11 1.38 0.35 92 1012.7
20260509190315 68 125 0.0 0.0 0.11 1.37 0.34 92 1012.9
20260509185812 68 125 0.0 0.0 0.11 1.36 0.33 92 1012.6
20260509185308 68 125 0.0 0.0 0.11 1.35 0.32 92 1012.5
20260509184819 67 125 0.0 0.0 0.11 1.34 0.31 92 1012.5
20260509184315 67 125 0.0 0.0 0.12 1.34 0.31 92 1012.4
20260509183810 67 125 0.0 0.0 0.12 1.33 0.30 92 1012.4
20260509183307 67 125 0.0 0.0 0.12 1.32 0.29 92 1012.2
20260509182804 67 125 0.0 2.0 0.13 1.31 0.28 92 1012.6
20260509182301 67 125 0.0 3.0 0.13 1.30 0.27 92 1012.6
20260509181758 67 125 0.0 4.0 0.13 1.29 0.26 92 1012.4
20260509181314 67 130 2.0 4.0 0.13 1.28 0.25 92 1012.4
20260509180810 67 158 2.0 5.0 0.13 1.27 0.24 92 1012.5
20260509180305 67 132 0.0 5.0 0.13 1.26 0.23 92 1012.4
20260509175815 67 115 1.0 5.0 0.13 1.25 0.22 92 1012.3
20260509175311 67 121 2.0 5.0 0.13 1.24 0.21 92 1012.5
20260509174808 67 119 2.0 5.0 0.13 1.23 0.20 92 1012.4
20260509174304 67 123 0.0 6.0 0.13 1.22 0.19 92 1012.2
20260509173800 67 124 3.0 7.0 0.13 1.21 0.18 92 1012.3
20260509173316 67 134 1.0 5.0 0.13 1.20 0.17 92 1012.8
20260509172812 67 121 0.0 3.0 0.12 1.18 0.15 92 1012.9
20260509172307 67 148 0.0 5.0 0.12 1.17 0.14 92 1013.1
20260509171803 67 169 1.0 9.0 0.12 1.16 0.13 92 1013.0
20260509171300 67 103 1.0 9.0 0.12 1.15 0.12 92 1012.9
20260509170817 66 134 2.0 4.0 0.12 1.14 0.11 91 1013.2
20260509170314 66 132 1.0 4.0 0.12 1.13 0.10 91 1013.3
20260509165809 66 172 1.0 3.0 0.12 1.12 0.09 91 1013.2
20260509165325 66 70 0.0 4.0 0.12 1.11 0.08 91 1012.8
20260509164759 66 70 1.0 4.0 0.12 1.10 0.07 91 1013.1
20260509164317 66 70 0.0 5.0 0.12 1.09 0.06 91 1013.6
20260509163812 66 89 0.0 5.0 0.12 1.08 0.05 91 1013.7
20260509163328 66 86 0.0 5.0 0.12 1.07 0.04 90 1013.4
20260509162823 66 150 1.0 3.0 0.12 1.06 0.03 90 1013.3
20260509162319 66 153 0.0 9.0 0.12 1.05 0.02 90 1013.3
20260509161313 66 94 2.0 9.0 0.12 1.03 1.03 90 1013.2
20260509160809 67 63 4.0 8.0 0.12 1.02 1.02 90 1013.4
20260509160306 67 113 3.0 5.0 0.12 1.01 1.01 89 1013.9
20260509155819 67 76 3.0 8.0 0.12 1.00 1.00 89 1013.8
20260509155338 67 132 1.0 9.0 0.12 0.99 0.99 89 1013.3
20260509154813 67 63 4.0 14.0 0.13 0.98 0.98 89 1013.4
20260509154322 67 98 3.0 14.0 0.12 0.97 0.97 88 1013.2
20260509153837 67 80 1.0 9.0 0.13 0.96 0.96 88 1013.4
20260509153313 67 69 3.0 8.0 0.13 0.95 0.95 88 1013.1
20260509152810 67 114 3.0 9.0 0.13 0.94 0.94 88 1013.1
20260509152307 68 99 2.0 9.0 0.13 0.93 0.93 88 1012.9
20260509151803 68 82 1.0 9.0 0.13 0.92 0.92 89 1013.2
20260509151320 68 107 2.0 9.0 0.14 0.91 0.91 89 1013.2
20260509150815 68 89 1.0 10.0 0.14 0.90 0.90 89 1013.2